Time,TemperatureF,DewpointF,PressureIn,WindDirection,WindDirectionDegrees,WindSpeedMPH,WindSpeedGustMPH,Humidity,HourlyPrecipIn,Conditions,Clouds,dailyrainin,SoftwareType,DateUTC
2013-02-27 00:01:00,32.0,25.0,-100.00,NW,325,4.0,7.0,75,0.00,,,0.00,,2013-02-27 00:01:00,
2013-02-27 00:11:00,32.0,25.0,-100.00,NNW,335,5.0,7.0,76,0.00,,,0.00,,2013-02-27 00:11:00,
2013-02-27 00:21:00,31.0,25.0,-100.00,NNW,335,5.0,8.0,76,0.00,,,0.00,,2013-02-27 00:21:00,
2013-02-27 00:31:00,31.0,25.0,-100.00,NNW,345,4.0,6.0,77,0.00,,,0.00,,2013-02-27 00:31:00,
2013-02-27 00:41:00,31.0,25.0,-100.00,NNW,340,5.0,7.0,78,0.00,,,0.00,,2013-02-27 00:41:00,
2013-02-27 00:51:00,31.0,25.0,-100.00,North,350,6.0,7.0,78,0.00,,,0.00,,2013-02-27 00:51:00,
2013-02-27 01:01:00,31.0,25.0,-100.00,North,350,6.0,9.0,78,0.00,,,0.00,,2013-02-27 01:01:00,
2013-02-27 01:11:00,31.0,25.0,-100.00,North,0,6.0,9.0,78,0.00,,,0.00,,2013-02-27 01:11:00,
2013-02-27 01:21:00,30.0,25.0,-100.00,North,350,6.0,8.0,78,0.00,,,0.00,,2013-02-27 01:21:00,
2013-02-27 01:31:00,30.0,25.0,-100.00,North,350,6.0,9.0,79,0.00,,,0.00,,2013-02-27 01:31:00,
2013-02-27 01:41:00,30.0,25.0,-100.00,North,0,6.0,8.0,79,0.00,,,0.00,,2013-02-27 01:41:00,
2013-02-27 01:51:00,30.0,25.0,-100.00,North,0,4.0,7.0,79,0.00,,,0.00,,2013-02-27 01:51:00,
2013-02-27 02:01:00,30.0,23.0,-100.00,North,0,3.0,6.0,79,0.00,,,0.00,,2013-02-27 02:01:00,
2013-02-27 02:14:00,30.0,25.0,-100.00,North,10,6.0,7.0,80,0.00,,,0.00,,2013-02-27 02:14:00,
2013-02-27 02:23:00,30.0,25.0,-100.00,North,0,4.0,8.0,79,0.00,,,0.00,,2013-02-27 02:23:00,
2013-02-27 02:32:00,30.0,25.0,-100.00,North,5,6.0,8.0,79,0.00,,,0.00,,2013-02-27 02:32:00,
2013-02-27 02:42:00,31.0,25.0,-100.00,North,0,7.0,12.0,78,0.00,,,0.00,,2013-02-27 02:42:00,
2013-02-27 02:52:00,31.0,25.0,-100.00,North,0,6.0,12.0,77,0.00,,,0.00,,2013-02-27 02:52:00,
2013-02-27 03:02:00,31.0,25.0,-100.00,North,0,6.0,10.0,78,0.00,,,0.00,,2013-02-27 03:02:00,
2013-02-27 03:11:00,30.0,25.0,-100.00,NNE,20,6.0,10.0,78,0.00,,,0.00,,2013-02-27 03:11:00,
2013-02-27 03:21:00,30.0,25.0,-100.00,NNE,15,5.0,9.0,78,0.00,,,0.00,,2013-02-27 03:21:00,
2013-02-27 03:32:00,30.0,25.0,-100.00,NNE,25,5.0,9.0,78,0.00,,,0.00,,2013-02-27 03:32:00,
2013-02-27 03:41:00,30.0,23.0,-100.00,North,0,5.0,7.0,78,0.00,,,0.00,,2013-02-27 03:41:00,
2013-02-27 03:51:00,30.0,25.0,-100.00,NNE,20,6.0,11.0,78,0.00,,,0.00,,2013-02-27 03:51:00,
2013-02-27 04:01:00,30.0,23.0,-100.00,NNE,25,6.0,10.0,78,0.00,,,0.00,,2013-02-27 04:01:00,
2013-02-27 04:11:00,30.0,23.0,-100.00,North,0,4.0,7.0,78,0.00,,,0.00,,2013-02-27 04:11:00,
2013-02-27 04:21:00,29.0,23.0,-100.00,North,0,5.0,7.0,78,0.00,,,0.00,,2013-02-27 04:21:00,
2013-02-27 04:32:00,29.0,23.0,-100.00,North,5,6.0,9.0,78,0.00,,,0.00,,2013-02-27 04:32:00,
2013-02-27 04:41:00,29.0,23.0,-100.00,North,0,6.0,7.0,78,0.00,,,0.00,,2013-02-27 04:41:00,
2013-02-27 04:51:00,29.0,23.0,-100.00,North,0,4.0,8.0,78,0.00,,,0.00,,2013-02-27 04:51:00,
2013-02-27 05:01:00,28.0,23.0,-100.00,North,0,4.0,7.0,78,0.00,,,0.00,,2013-02-27 05:01:00,
2013-02-27 05:11:00,28.0,23.0,-100.00,North,0,5.0,7.0,78,0.00,,,0.00,,2013-02-27 05:11:00,
2013-02-27 05:22:00,27.0,21.0,-100.00,North,350,7.0,9.0,79,0.00,,,0.00,,2013-02-27 05:22:00,
2013-02-27 05:32:00,26.0,21.0,-100.00,NNW,335,7.0,10.0,80,0.00,,,0.00,,2013-02-27 05:32:00,
2013-02-27 05:41:00,27.0,21.0,-100.00,North,350,7.0,10.0,81,0.00,,,0.00,,2013-02-27 05:41:00,
2013-02-27 05:52:00,27.0,21.0,-100.00,NNW,345,7.0,11.0,81,0.00,,,0.00,,2013-02-27 05:52:00,
2013-02-27 06:02:00,27.0,21.0,-100.00,NNW,345,8.0,11.0,81,0.00,,,0.00,,2013-02-27 06:02:00,
2013-02-27 06:11:00,27.0,21.0,-100.00,NNW,345,9.0,12.0,81,0.00,,,0.00,,2013-02-27 06:11:00,
2013-02-27 06:21:00,27.0,21.0,-100.00,NNW,345,9.0,12.0,81,0.00,,,0.00,,2013-02-27 06:21:00,
2013-02-27 06:32:00,27.0,21.0,-100.00,NNW,345,9.0,14.0,81,0.00,,,0.00,,2013-02-27 06:32:00,
2013-02-27 06:41:00,27.0,21.0,-100.00,North,350,9.0,14.0,81,0.00,,,0.00,,2013-02-27 06:41:00,
2013-02-27 06:51:00,27.0,21.0,-100.00,NNW,345,9.0,15.0,82,0.00,,,0.00,,2013-02-27 06:51:00,
2013-02-27 07:01:00,26.0,21.0,-100.00,North,350,9.0,12.0,82,0.00,,,0.00,,2013-02-27 07:01:00,
2013-02-27 07:12:00,27.0,21.0,-100.00,NNW,345,11.0,13.0,83,0.00,,,0.00,,2013-02-27 07:12:00,
2013-02-27 07:21:00,26.0,21.0,-100.00,NNW,340,9.0,13.0,83,0.00,,,0.00,,2013-02-27 07:21:00,
2013-02-27 07:31:00,26.0,21.0,-100.00,NNW,345,9.0,13.0,83,0.00,,,0.00,,2013-02-27 07:31:00,
2013-02-27 07:41:00,26.0,21.0,-100.00,North,0,9.0,16.0,83,0.00,,,0.00,,2013-02-27 07:41:00,
2013-02-27 07:51:00,26.0,21.0,-100.00,North,350,9.0,15.0,83,0.00,,,0.00,,2013-02-27 07:51:00,
2013-02-27 08:01:00,26.0,21.0,-100.00,North,350,8.0,12.0,83,0.00,,,0.00,,2013-02-27 08:01:00,
2013-02-27 08:11:00,26.0,21.0,-100.00,North,350,7.0,11.0,83,0.00,,,0.00,,2013-02-27 08:11:00,
2013-02-27 08:21:00,26.0,21.0,-100.00,NNW,345,7.0,11.0,84,0.00,,,0.00,,2013-02-27 08:21:00,
2013-02-27 08:32:00,26.0,21.0,-100.00,NNW,345,10.0,12.0,84,0.00,,,0.00,,2013-02-27 08:32:00,
2013-02-27 08:41:00,26.0,21.0,-100.00,NNW,345,10.0,14.0,84,0.00,,,0.00,,2013-02-27 08:41:00,
2013-02-27 08:52:00,26.0,21.0,-100.00,NNW,345,11.0,14.0,84,0.00,,,0.00,,2013-02-27 08:52:00,
2013-02-27 09:02:00,26.0,21.0,-100.00,NNW,345,10.0,14.0,84,0.00,,,0.00,,2013-02-27 09:02:00,
2013-02-27 09:11:00,26.0,21.0,-100.00,North,350,12.0,16.0,84,0.00,,,0.00,,2013-02-27 09:11:00,
2013-02-27 09:21:00,26.0,21.0,-100.00,NNW,345,9.0,13.0,84,0.00,,,0.00,,2013-02-27 09:21:00,
2013-02-27 09:32:00,26.0,21.0,-100.00,NNW,345,9.0,13.0,85,0.00,,,0.00,,2013-02-27 09:32:00,
2013-02-27 09:41:00,26.0,21.0,-100.00,North,0,7.0,11.0,85,0.00,,,0.00,,2013-02-27 09:41:00,
2013-02-27 09:51:00,25.0,21.0,-100.00,North,0,5.0,10.0,85,0.00,,,0.00,,2013-02-27 09:51:00,
2013-02-27 10:01:00,25.0,21.0,-100.00,North,0,5.0,9.0,86,0.00,,,0.00,,2013-02-27 10:01:00,
2013-02-27 10:12:00,24.0,21.0,-100.00,North,10,4.0,7.0,87,0.00,,,0.00,,2013-02-27 10:12:00,
2013-02-27 10:21:00,24.0,21.0,-100.00,North,5,4.0,7.0,88,0.00,,,0.00,,2013-02-27 10:21:00,
2013-02-27 10:32:00,24.0,21.0,-100.00,North,0,5.0,7.0,88,0.00,,,0.00,,2013-02-27 10:32:00,
2013-02-27 10:42:00,24.0,21.0,-100.00,NNW,345,6.0,8.0,89,0.00,,,0.00,,2013-02-27 10:42:00,
2013-02-27 10:52:00,23.0,21.0,-100.00,NNW,345,6.0,9.0,89,0.00,,,0.00,,2013-02-27 10:52:00,
2013-02-27 11:02:00,23.0,21.0,-100.00,North,0,6.0,7.0,89,0.00,,,0.00,,2013-02-27 11:02:00,
2013-02-27 11:12:00,23.0,21.0,-100.00,NNW,345,7.0,8.0,90,0.00,,,0.00,,2013-02-27 11:12:00,
2013-02-27 11:22:00,23.0,21.0,-100.00,North,350,7.0,10.0,90,0.00,,,0.00,,2013-02-27 11:22:00,
2013-02-27 11:32:00,23.0,21.0,-100.00,NNW,345,8.0,11.0,90,0.00,,,0.00,,2013-02-27 11:32:00,
2013-02-27 11:41:00,23.0,21.0,-100.00,North,350,8.0,11.0,90,0.00,,,0.00,,2013-02-27 11:41:00,
2013-02-27 11:52:00,24.0,21.0,-100.00,North,0,6.0,10.0,90,0.00,,,0.00,,2013-02-27 11:52:00,
2013-02-27 12:02:00,23.0,21.0,-100.00,North,0,6.0,9.0,90,0.00,,,0.00,,2013-02-27 12:02:00,
2013-02-27 12:12:00,24.0,21.0,-100.00,North,0,6.0,9.0,90,0.00,,,0.00,,2013-02-27 12:12:00,
2013-02-27 12:22:00,23.0,21.0,-100.00,North,0,6.0,9.0,91,0.00,,,0.00,,2013-02-27 12:22:00,
2013-02-27 12:32:00,23.0,21.0,-100.00,North,0,6.0,12.0,91,0.00,,,0.00,,2013-02-27 12:32:00,
2013-02-27 12:42:00,23.0,21.0,-100.00,North,350,6.0,9.0,91,0.00,,,0.00,,2013-02-27 12:42:00,
2013-02-27 12:52:00,23.0,21.0,-100.00,North,350,7.0,9.0,92,0.00,,,0.00,,2013-02-27 12:52:00,
2013-02-27 13:02:00,23.0,21.0,-100.00,North,350,7.0,10.0,92,0.00,,,0.00,,2013-02-27 13:02:00,
2013-02-27 13:11:00,23.0,21.0,-100.00,NNW,345,7.0,10.0,92,0.00,,,0.00,,2013-02-27 13:11:00,
2013-02-27 13:22:00,23.0,21.0,-100.00,NNW,345,9.0,12.0,93,0.00,,,0.00,,2013-02-27 13:22:00,
2013-02-27 13:32:00,23.0,21.0,-100.00,NNW,345,9.0,12.0,93,0.00,,,0.00,,2013-02-27 13:32:00,
2013-02-27 13:42:00,23.0,21.0,-100.00,NNW,345,10.0,16.0,93,0.00,,,0.00,,2013-02-27 13:42:00,
2013-02-27 13:52:00,23.0,21.0,-100.00,NNW,345,7.0,12.0,93,0.00,,,0.00,,2013-02-27 13:52:00,
2013-02-27 14:02:00,23.0,21.0,-100.00,NNW,335,7.0,11.0,93,0.00,,,0.00,,2013-02-27 14:02:00,
2013-02-27 14:12:00,22.0,21.0,-100.00,NNW,340,9.0,12.0,92,0.00,,,0.00,,2013-02-27 14:12:00,
2013-02-27 14:21:00,23.0,21.0,-100.00,NNW,335,10.0,13.0,92,0.00,,,0.00,,2013-02-27 14:21:00,
2013-02-27 14:32:00,23.0,21.0,-100.00,NNW,340,9.0,14.0,91,0.00,,,0.00,,2013-02-27 14:32:00,
2013-02-27 14:42:00,24.0,21.0,-100.00,NNW,335,9.0,14.0,89,0.00,,,0.00,,2013-02-27 14:42:00,
2013-02-27 14:52:00,25.0,21.0,-100.00,NNW,340,9.0,14.0,88,0.00,,,0.00,,2013-02-27 14:52:00,
2013-02-27 15:02:00,26.0,21.0,-100.00,NNW,340,12.0,17.0,86,0.00,,,0.00,,2013-02-27 15:02:00,
2013-02-27 15:12:00,26.0,21.0,-100.00,NNW,340,9.0,17.0,85,0.00,,,0.00,,2013-02-27 15:12:00,
2013-02-27 15:22:00,26.0,21.0,-100.00,NNW,340,13.0,18.0,83,0.00,,,0.00,,2013-02-27 15:22:00,
2013-02-27 15:32:00,27.0,21.0,-100.00,NNW,340,12.0,19.0,81,0.00,,,0.00,,2013-02-27 15:32:00,
2013-02-27 15:42:00,27.0,21.0,-100.00,NNW,340,13.0,18.0,80,0.00,,,0.00,,2013-02-27 15:42:00,
2013-02-27 15:52:00,27.0,21.0,-100.00,NNW,345,11.0,19.0,78,0.00,,,0.00,,2013-02-27 15:52:00,
2013-02-27 16:01:00,28.0,21.0,-100.00,North,350,12.0,17.0,77,0.00,,,0.00,,2013-02-27 16:01:00,
2013-02-27 16:11:00,29.0,23.0,-100.00,NNW,335,12.0,17.0,76,0.00,,,0.00,,2013-02-27 16:11:00,
2013-02-27 16:22:00,29.0,21.0,-100.00,NNW,340,12.0,18.0,75,0.00,,,0.00,,2013-02-27 16:22:00,
2013-02-27 16:32:00,30.0,23.0,-100.00,NNW,345,13.0,19.0,75,0.00,,,0.00,,2013-02-27 16:32:00,
2013-02-27 16:42:00,31.0,23.0,-100.00,North,0,11.0,17.0,73,0.00,,,0.00,,2013-02-27 16:42:00,
2013-02-27 16:52:00,31.0,23.0,-100.00,NNW,340,11.0,17.0,72,0.00,,,0.00,,2013-02-27 16:52:00,
2013-02-27 17:02:00,32.0,23.0,-100.00,NNW,340,12.0,19.0,71,0.00,,,0.00,,2013-02-27 17:02:00,
2013-02-27 17:11:00,32.0,23.0,-100.00,NNW,335,12.0,19.0,71,0.00,,,0.00,,2013-02-27 17:11:00,
2013-02-27 17:21:00,32.0,23.0,-100.00,North,350,15.0,24.0,70,0.00,,,0.00,,2013-02-27 17:21:00,
2013-02-27 17:32:00,33.0,23.0,-100.00,NNW,345,14.0,25.0,69,0.00,,,0.00,,2013-02-27 17:32:00,
2013-02-27 17:41:00,33.0,23.0,-100.00,North,350,16.0,22.0,67,0.00,,,0.00,,2013-02-27 17:41:00,
2013-02-27 17:52:00,34.0,25.0,-100.00,NNW,345,13.0,22.0,67,0.00,,,0.00,,2013-02-27 17:52:00,
2013-02-27 18:01:00,35.0,25.0,-100.00,NNW,340,14.0,24.0,65,0.00,,,0.00,,2013-02-27 18:01:00,
2013-02-27 18:11:00,36.0,25.0,-100.00,NNW,345,16.0,22.0,63,0.00,,,0.00,,2013-02-27 18:11:00,
2013-02-27 18:22:00,36.0,25.0,-100.00,North,0,14.0,21.0,61,0.00,,,0.00,,2013-02-27 18:22:00,
2013-02-27 18:32:00,36.0,23.0,-100.00,NNW,345,14.0,24.0,60,0.00,,,0.00,,2013-02-27 18:32:00,
2013-02-27 18:42:00,37.0,23.0,-100.00,North,350,16.0,23.0,59,0.00,,,0.00,,2013-02-27 18:42:00,
2013-02-27 18:51:00,37.0,23.0,-100.00,North,350,16.0,23.0,58,0.00,,,0.00,,2013-02-27 18:51:00,
2013-02-27 19:01:00,37.0,23.0,-100.00,North,350,13.0,23.0,57,0.00,,,0.00,,2013-02-27 19:01:00,
2013-02-27 19:12:00,37.0,23.0,-100.00,NNW,335,14.0,21.0,57,0.00,,,0.00,,2013-02-27 19:12:00,
2013-02-27 19:21:00,38.0,25.0,-100.00,NNW,335,17.0,22.0,58,0.00,,,0.00,,2013-02-27 19:21:00,
2013-02-27 19:32:00,38.0,23.0,-100.00,NNW,330,16.0,27.0,57,0.00,,,0.00,,2013-02-27 19:32:00,
2013-02-27 19:42:00,38.0,23.0,-100.00,NNW,330,17.0,26.0,57,0.00,,,0.00,,2013-02-27 19:42:00,
2013-02-27 19:52:00,38.0,25.0,-100.00,NNW,345,12.0,26.0,57,0.00,,,0.00,,2013-02-27 19:52:00,
2013-02-27 20:01:00,38.0,25.0,-100.00,North,350,13.0,26.0,56,0.00,,,0.00,,2013-02-27 20:01:00,
2013-02-27 20:11:00,38.0,23.0,-100.00,North,350,17.0,25.0,55,0.00,,,0.00,,2013-02-27 20:11:00,
2013-02-27 20:21:00,38.0,25.0,-100.00,NNW,335,13.0,25.0,56,0.00,,,0.00,,2013-02-27 20:21:00,
2013-02-27 20:32:00,38.0,23.0,-100.00,NNW,345,14.0,27.0,55,0.00,,,0.00,,2013-02-27 20:32:00,
2013-02-27 20:42:00,39.0,25.0,-100.00,North,0,14.0,23.0,55,0.00,,,0.00,,2013-02-27 20:42:00,
2013-02-27 20:52:00,39.0,25.0,-100.00,North,350,17.0,27.0,55,0.00,,,0.00,,2013-02-27 20:52:00,
2013-02-27 21:02:00,39.0,25.0,-100.00,North,350,17.0,24.0,55,0.00,,,0.00,,2013-02-27 21:02:00,
2013-02-27 21:11:00,39.0,25.0,-100.00,North,350,14.0,24.0,55,0.00,,,0.00,,2013-02-27 21:11:00,
2013-02-27 21:21:00,40.0,25.0,-100.00,NNW,345,12.0,19.0,54,0.00,,,0.00,,2013-02-27 21:21:00,
2013-02-27 21:31:00,40.0,25.0,-100.00,NNW,340,14.0,21.0,54,0.00,,,0.00,,2013-02-27 21:31:00,
2013-02-27 21:42:00,40.0,25.0,-100.00,NNW,345,12.0,21.0,54,0.00,,,0.00,,2013-02-27 21:42:00,
2013-02-27 21:51:00,40.0,25.0,-100.00,North,350,12.0,21.0,54,0.00,,,0.00,,2013-02-27 21:51:00,
2013-02-27 22:01:00,40.0,25.0,-100.00,NNW,340,12.0,20.0,54,0.00,,,0.00,,2013-02-27 22:01:00,
2013-02-27 22:11:00,40.0,25.0,-100.00,North,350,13.0,22.0,54,0.00,,,0.00,,2013-02-27 22:11:00,
2013-02-27 22:21:00,40.0,25.0,-100.00,NNW,345,11.0,20.0,53,0.00,,,0.00,,2013-02-27 22:21:00,
2013-02-27 22:31:00,40.0,25.0,-100.00,North,0,12.0,22.0,53,0.00,,,0.00,,2013-02-27 22:31:00,
2013-02-27 22:41:00,40.0,25.0,-100.00,North,350,11.0,17.0,53,0.00,,,0.00,,2013-02-27 22:41:00,
2013-02-27 22:51:00,40.0,25.0,-100.00,North,0,10.0,16.0,54,0.00,,,0.00,,2013-02-27 22:51:00,
2013-02-27 23:01:00,40.0,25.0,-100.00,North,350,11.0,16.0,54,0.00,,,0.00,,2013-02-27 23:01:00,
2013-02-27 23:11:00,40.0,25.0,-100.00,North,350,12.0,16.0,54,0.00,,,0.00,,2013-02-27 23:11:00,
2013-02-27 23:21:00,40.0,23.0,-100.00,North,350,11.0,16.0,53,0.00,,,0.00,,2013-02-27 23:21:00,
2013-02-27 23:32:00,39.0,23.0,-100.00,North,0,8.0,16.0,53,0.00,,,0.00,,2013-02-27 23:32:00,
2013-02-27 23:42:00,39.0,23.0,-100.00,North,350,8.0,14.0,52,0.00,,,0.00,,2013-02-27 23:42:00,
2013-02-27 23:52:00,39.0,23.0,-100.00,North,5,6.0,11.0,52,0.00,,,0.00,,2013-02-27 23:52:00,